#timestamp,LO_Frequency,Hit,StdDev 
1517850015.4,286046991.9,N
1517850035.2,286046994.2,N
1517850055.1,286046994.2,N
1517850056.0,286046994.2,N
1517850075.8,286046992.7,N
1517850095.7,286046992.6,N
1517850115.5,286046994.5,N
1517850135.3,286046992.2,N
1517850155.2,286046994.3,N
1517850175.0,286046995.3,N
1517850175.9,286046995.3,N
1517850195.7,286046996.7,N
1517850215.6,286046999.5,N
1517850235.4,286046999.5,N
1517850255.3,286046996.7,N
1517850275.1,286046997.9,N
1517850276.0,286046997.9,N
1517850295.8,286046997.1,N
1517850315.7,286047000.8,N
1517850335.5,286047000.0,N
1517850355.3,286047002.3,N
1517850375.2,286046999.8,N
1517850395.0,286046997.0,N
1517850395.9,286046997.0,N
1517850415.8,286046996.9,N
1517850435.6,286046998.9,N
1517850455.4,286046998.8,N
1517850475.3,286046998.1,N
1517850495.1,286046996.5,N
1517850515.8,286046999.3,N
1517850535.7,286046997.1,N
1517850555.5,286046993.9,N
1517850575.4,286046995.8,N
1517850595.2,286046997.4,N
1517850615.0,286046996.9,N
1517850615.9,286046996.9,N
1517850635.8,286046999.4,N
1517850655.6,286046998.8,N
1517850675.4,286046997.1,N
1517850695.3,286046996.8,N
1517850715.1,286046997.6,N
1517850735.8,286046996.6,N
1517850755.7,286047001.2,N
1517850775.5,286047001.0,N
1517850795.4,286047000.6,N
1517850815.2,286046999.9,N
1517850835.0,286047000.2,N
1517850835.9,286047000.2,N
1517850855.8,286047000.2,N
1517850875.6,286047000.0,N
1517850895.4,286047002.1,N
1517850915.3,286047001.7,N
1517850935.1,286047001.8,N
1517850955.9,286047001.8,N
1517850975.7,286047004.0,N
1517850995.5,286047003.4,N
1517851015.4,286047002.4,N
1517851035.2,286047002.7,N
1517851055.0,286047000.4,N
1517851055.9,286047000.4,N
1517851075.8,286047000.7,N
1517851095.6,286046995.6,N
1517851115.5,286046997.3,N
1517851135.3,286046996.8,N
1517851155.1,286046998.7,N
1517851175.9,286047002.4,N
1517851195.7,286046998.5,N
1517851215.5,286047001.0,N
1517851235.4,286047001.1,N
1517851255.2,286046998.2,N
1517851275.1,286046999.9,N
1517851276.0,286046999.9,N
1517851295.8,286047003.8,N
1517851315.6,286047002.0,N
1517851335.5,286047001.1,N
1517851355.3,286047000.3,N
1517851375.1,286047002.8,N
1517851395.9,286047001.3,N
1517851415.7,286047004.4,N
1517851435.5,286046999.8,N
1517851455.4,286047001.9,N
1517851475.2,286047000.1,N
1517851495.1,286047001.9,N
1517851496.0,286047001.9,N
1517851515.8,286047002.1,N
1517851535.6,286047001.3,N
1517851555.5,286047003.8,N
1517851575.3,286047003.9,N
1517851595.1,286047003.2,N
1517851615.9,286047003.1,N
1517851635.7,286047003.4,N
1517851655.6,286047001.3,N
1517851675.4,286047001.3,N
1517851695.2,286047000.7,N
1517851715.1,286046999.3,N
1517851716.0,286046999.3,N
1517851735.8,286046998.2,N
1517851755.6,286046999.8,N
1517851775.5,286047000.0,N
1517851795.3,286047000.6,N
1517851815.2,286046999.7,N
1517851835.9,286047001.8,N
1517851855.7,286047000.2,N
1517851875.6,286047001.0,N
1517851895.4,286046998.6,N
1517851915.3,286046997.5,N
1517851935.1,286046997.0,N
1517851936.0,286046997.0,N
1517851955.8,286046998.9,N
1517851975.7,286047000.1,N
1517851995.5,286047002.7,N
1517852015.3,286047003.6,N
1517852035.2,286047003.9,N
1517852055.0,286047002.2,N
1517852055.9,286047002.2,N
1517852075.8,286047000.5,N
1517852095.6,286047000.3,N
1517852115.4,286047002.5,N
1517852135.3,286047000.0,N
1517852155.1,286047002.0,N
1517852175.9,286046998.5,N
1517852195.7,286046998.1,N
1517852215.5,286047001.1,N
1517852235.4,286046999.5,N
1517852255.2,286046995.3,N
1517852275.0,286046994.0,Y
1517852275.9,286046994.0,P
1517852295.8,286046995.3,N
1517852315.6,286046998.6,N
1517852335.5,286047002.8,N
1517852355.3,286047000.1,N
1517852375.1,286047001.7,N
1517852395.9,286047000.3,N
1517852415.7,286047000.3,N
1517852435.5,286046998.6,N
1517852455.4,286047001.0,N
1517852475.2,286047001.1,N
1517852495.1,286047000.8,N
1517852496.0,286047000.8,N
1517852515.8,286047002.8,N
1517852535.6,286046998.1,N
1517852555.5,286047000.8,N
1517852575.3,286047000.0,N
1517852595.2,286047004.0,N
1517852615.9,286047004.1,N
1517852635.7,286047001.6,N
1517852655.6,286046998.4,N
1517852675.4,286047011.9,Y
1517852695.2,286046997.1,P
1517852715.1,286046997.7,N
1517852716.0,286046997.7,N
1517852735.8,286046996.9,N
1517852755.7,286046998.1,N
1517852775.5,286046999.8,N
1517852795.3,286047003.8,Y
1517852815.2,286047007.1,P
1517852835.0,286047004.7,N
1517852835.9,286047004.7,N
1517852855.7,286047006.8,N
1517852875.6,286047009.2,N
1517852895.4,286047006.5,N
1517852915.3,286047006.5,N
1517852935.1,286047004.5,N
1517852936.0,286047004.5,N
1517852955.8,286047005.5,N
1517852975.7,286047002.0,N
1517852995.5,286047001.8,N
1517853015.3,286047003.9,N
1517853035.2,286047001.8,N
1517853055.0,286047001.8,N
1517853055.9,286047001.8,N
1517853075.8,286047005.5,N
1517853095.6,286047003.8,N
1517853115.4,286047002.6,N
1517853135.3,286047006.0,N
1517853155.1,286047002.1,N
1517853175.8,286047000.7,N
1517853195.7,286047000.1,N
1517853215.5,286047002.2,N
1517853235.3,286047002.0,N
1517853255.2,286047003.5,N
1517853275.0,286047001.8,N
1517853275.9,286047001.8,N
1517853295.8,286047004.3,N
1517853315.6,286047006.0,N
1517853335.4,286047001.9,N
1517853355.3,286047001.6,N
1517853375.1,286046999.7,N
1517853395.8,286047001.8,N
1517853415.7,286047001.9,N
1517853435.5,286046999.9,N
1517853455.4,286047002.3,N
1517853475.2,286047002.9,N
1517853495.0,286047004.5,N
1517853495.9,286047004.5,N
1517853515.8,286047004.8,N
1517853535.6,286047002.9,N
1517853555.4,286047003.6,N
1517853575.3,286047002.6,N
1517853595.1,286047000.2,N
